Dewpoint
-12 -17 -9 -3 -8 -13 -13 -13 -12 -9 -9 -9 -7 -7 -7 -6 -1 5 4 9 9 11 3 5 8 9 9 9 9 10 10 10 9 9 11 13 11 11 11 11 10 9 9 9 11 11 11 12 12
-16 -10 -4 -7 -11 -11 -13 -13 -11 -10 -8 -7 -7 -6 -4 -0 -2 1 7 10 7 14 6 6 8 9 9 8 8 10 10 10 10 9 11 12 10 11 11 10 10 10 9 10 12 12 12 11 12
-11 -8 -5 -10 -11 -10 -11 -13 -10 -9 -7 -6 -7 -5 -4 -2 -2 1 4 8 6 14 13 8 7 8 8 7 8 9 9 9 10 10 10 10 10 10 10 10 10 10 10 11 11 12 12 12 12
-1 -4 -6 -6 -8 -10 -13 -11 -9 -8 -7 -4 -5 -5 -4 -2 -2 1 7 8 7 11 14 13 9 6 5 3 3 5 6 8 10 10 10 10 10 10 10 10 10 10 10 11 11 11 11 12 12
-3 -6 -5 -5 -6 -8 -8 -8 -6 -6 -5 -4 -4 -3 -3 -2 -3 3 5 7 7 11 14 7 9 7 3 0 -3 -1 2 4 8 10 10 10 10 10 10 10 9 9 10 10 11 10 11 12 12
-4 -3 -3 -3 -5 -4 -5 -5 -5 -4 -3 -4 -4 -4 -4 -4 -4 3 5 6 6 6 6 5 5 5 4 -1 -3 -4 -1 1 5 9 10 10 10 10 10 10 9 10 10 10 10 10 11 11 11
-3 -2 -2 -2 -2 -3 -3 -3 -3 -3 -4 -5 -5 -5 -4 -3 -6 0 6 4 5 7 3 2 2 2 -1 -1 -1 -0 2 2 5 9 10 11 11 10 10 10 10 9 10 10 10 10 11 11 10
-3 -4 -2 -3 -3 -3 -3 -4 -5 -7 -7 -7 -7 -6 -5 -9 -9 -7 4 9 10 8 3 1 -0 -5 -4 -2 1 3 4 6 5 8 10 11 11 10 10 10 10 9 10 10 10 11 11 10 10
-2 -4 -5 -3 -3 -4 -4 -8 -9 -10 -9 -11 -10 -8 -12 -11 -10 -7 -0 7 12 11 6 1 -2 -6 -6 -4 2 5 6 8 9 9 10 11 11 11 10 10 10 10 10 10 10 10 10 10 10
-6 -6 -7 -3 -3 -5 -9 -11 -14 -16 -17 -18 -17 -14 -13 -13 -12 -8 -4 -0 6 11 12 5 -3 -6 -6 -3 -1 3 7 9 11 11 10 11 14 13 12 9 10 10 10 10 10 10 10 10 11
-7 -10 -6 -8 -10 -11 -13 -17 -19 -20 -22 -19 -15 -14 -14 -14 -15 -13 -11 -7 -5 7 11 9 0 -5 -6 -4 -1 2 4 8 13 13 13 13 14 13 12 10 9 10 9 11 10 10 10 10 11
-10 -9 -9 -12 -13 -14 -17 -16 -17 -19 -20 -16 -14 -14 -16 -18 -18 -16 -14 -12 -9 -5 9 12 10 -1 -4 -4 -3 0 4 5 6 8 12 13 13 13 13 13 12 12 12 12 12 11 11 10 11
-12 -12 -13 -13 -14 -14 -13 -15 -15 -17 -19 -14 -15 -18 -19 -17 -15 -14 -14 -14 -12 -9 -5 7 12 10 -1 -2 -2 -1 1 5 4 6 7 11 13 13 12 12 12 12 12 12 13 13 12 10 11
-13 -14 -14 -13 -14 -15 -14 -16 -18 -17 -14 -16 -19 -19 -18 -16 -13 -13 -12 -13 -13 -13 -10 -7 8 13 11 1 -2 -2 -1 0 2 3 4 7 12 12 11 11 11 12 12 12 13 12 12 12 11
-10 -12 -15 -14 -14 -15 -15 -21 -16 -17 -17 -20 -18 -16 -14 -13 -11 -11 -10 -10 -11 -12 -12 -10 -6 9 13 12 8 -1 -1 -1 0 0 2 4 8 7 5 8 11 12 12 12 12 12 10 12 12
-13 -12 -17 -13 -14 -16 -16 -20 -18 -18 -19 -17 -14 -13 -12 -11 -10 -9 -8 -8 -9 -9 -9 -10 -9 -4 11 13 12 12 4 -1 2 3 0 0 3 8 5 9 9 11 12 12 12 10 9 9 8
-14 -18 -14 -15 -17 -17 -17 -16 -19 -19 -18 -15 -13 -12 -11 -10 -9 -7 -4 -3 -4 -6 -8 -8 -8 -6 -2 11 12 12 12 7 -1 1 -1 -1 -0 3 7 8 8 7 11 12 10 10 9 8 7
-14 -14 -14 -15 -19 -15 -15 -16 -19 -18 -16 -13 -12 -11 -10 -9 -5 -4 -3 -2 -1 -0 -2 -7 -7 -8 -9 -5 11 11 13 12 12 10 2 -1 -0 -0 5 10 7 4 9 12 10 9 10 11 7
-12 -14 -17 -19 -16 -13 -16 -16 -17 -16 -14 -13 -10 -9 -8 -5 -4 -2 -1 0 2 2 1 -3 -7 -6 -6 -3 7 11 12 13 13 11 5 2 0 1 1 10 8 5 5 6 8 8 11 12 12
-15 -16 -17 -16 -16 -13 -13 -12 -14 -14 -13 -11 -10 -7 -4 -3 -2 -1 2 3 4 4 3 1 -5 -8 -7 -8 3 10 11 11 13 13 8 5 3 1 1 4 6 5 5 6 7 10 12 12 12
-16 -14 -14 -14 -14 -13 -10 -16 -14 -14 -13 -10 -5 -3 -3 -1 1 3 3 3 4 5 5 3 -3 -7 -8 -9 -0 9 12 13 13 12 12 8 7 4 2 3 4 3 6 5 6 10 12 12 11
-14 -13 -13 -11 -10 -12 -10 -14 -14 -14 -9 -5 -4 -4 -1 2 3 2 3 4 3 4 6 6 1 -5 -8 -8 -2 8 11 11 11 12 12 9 8 8 2 3 5 3 5 7 5 9 12 12 10
-13 -12 -9 -8 -8 -7 -8 -8 -15 -12 -4 -4 -5 -4 0 1 1 2 1 1 1 3 3 6 -1 -4 -8 -9 -7 7 10 10 6 11 12 12 9 9 5 3 4 3 4 6 7 7 10 12 11
-12 -8 -8 -6 -6 -6 -10 -9 -14 -6 -3 -4 -3 0 2 1 0 1 -0 -1 -0 2 3 6 0 -6 -7 -7 -8 7 10 11 10 11 13 12 10 9 8 5 4 3 3 5 7 8 8 11 11
-10 -8 -12 -11 -9 -12 -10 -8 -10 -5 -5 -4 0 2 1 0 0 -1 -1 -2 -1 -1 1 3 4 -6 -7 -7 -7 8 10 11 13 11 6 12 11 12 9 7 5 4 4 4 6 8 9 10 11
-7 -6 -6 -4 -11 -10 -10 -6 -9 -6 -5 -1 2 1 0 0 -0 -1 -2 -3 -2 -2 -1 2 7 -5 -8 -7 -4 6 10 10 11 11 2 12 12 10 8 9 7 6 6 5 6 9 10 11 11
-6 -5 -6 1 -4 -2 -8 -9 -12 -5 -4 -2 0 1 0 -1 -1 -1 -2 -3 -2 -3 -2 0 7 7 -6 -7 -3 4 10 11 11 12 13 13 13 11 9 8 9 8 7 7 7 10 11 12 11
-6 -7 -1 -2 -0 -4 -10 -9 -5 -2 -2 -2 -0 -1 -1 -0 -1 -2 -3 -4 -2 -2 -2 3 6 8 9 7 6 9 11 12 12 12 13 13 13 13 12 11 12 11 10 9 9 11 12 11 11
-5 -4 -5 -3 -2 -2 -4 -7 -4 -2 -2 -1 -1 -1 -1 -1 -2 -3 -4 -3 -3 -2 -2 0 2 5 10 11 12 12 12 12 13 14 13 13 13 13 13 13 13 13 12 11 10 11 12 12 10
-8 -6 -5 -1 -1 -3 -2 -3 -5 -4 -2 -1 -2 -2 -2 -2 -2 -3 -4 -3 -4 -3 -3 -2 2 4 6 8 12 12 13 12 13 14 13 13 13 13 13 13 13 13 13 10 9 11 11 11 10
Wind_Speed
2 2 2 3 5 5 5 5 3 6 1 8 8 7 9 7 7 8 18 23 13 17 22 21 20 20 18 17 16 15 14 14 15 17 19 20 16 15 13 11 11 10 11 12 13 13 13 12 12
5 5 1 4 7 8 2 7 7 6 5 9 4 4 1 6 10 13 14 20 10 15 22 21 20 19 17 16 16 15 14 13 13 14 18 20 17 15 13 11 10 10 11 13 13 13 12 12 12
6 6 5 4 5 8 3 4 7 5 1 12 8 3 4 8 16 16 20 18 13 15 17 21 20 19 17 16 16 16 15 13 13 14 17 18 17 15 13 11 11 11 12 13 13 12 11 11 13
2 4 5 7 11 0 4 5 6 6 1 11 9 1 8 3 15 20 22 11 12 16 17 20 21 18 17 16 16 15 15 14 14 15 17 18 17 15 14 12 11 11 12 12 13 12 12 13 13
3 5 7 9 9 2 1 4 5 5 5 10 9 9 11 2 17 21 23 8 8 16 17 21 21 18 17 17 16 16 15 14 15 16 17 18 18 16 14 13 12 12 12 13 12 13 13 14 14
8 5 7 9 6 2 1 2 5 6 7 9 10 13 7 5 22 24 21 11 10 21 22 21 21 20 19 17 16 16 15 15 15 16 17 18 17 16 15 14 13 12 11 12 12 14 15 15 16
10 6 10 8 9 9 4 4 6 9 12 9 10 11 7 12 21 22 19 16 9 19 23 23 22 22 21 20 18 17 16 16 16 17 17 17 17 16 15 14 14 14 14 13 13 14 15 15 16
5 5 7 6 7 7 5 9 7 11 12 8 7 6 14 21 21 20 17 14 8 15 24 24 23 24 23 22 20 19 18 18 17 17 17 17 17 17 16 15 15 14 14 13 13 15 16 16 17
3 6 8 5 6 2 7 11 6 11 11 12 6 9 17 19 19 17 13 12 10 12 21 25 25 25 25 25 23 22 21 20 19 19 19 18 18 18 17 16 15 15 15 13 13 15 15 14 16
7 6 3 4 3 7 13 13 17 12 13 11 12 11 13 16 16 15 13 13 12 11 16 23 27 27 27 26 24 23 23 21 21 22 21 21 16 16 15 16 15 15 14 13 12 14 15 17 19
3 6 1 2 4 6 15 16 14 12 11 8 14 15 16 17 18 17 16 14 13 11 14 21 27 30 29 28 27 26 25 24 21 20 21 19 18 17 17 16 17 16 15 14 15 14 18 21 21
7 1 2 3 5 6 9 14 12 12 13 12 12 16 20 22 21 20 20 18 16 12 13 17 24 31 33 31 30 30 29 28 28 27 25 21 19 18 17 15 15 16 15 14 15 18 19 20 18
7 2 3 4 2 4 7 9 13 26 17 12 14 22 26 22 19 20 20 21 18 17 13 15 21 27 35 35 34 34 32 30 29 29 28 24 20 19 19 16 16 16 16 16 17 19 18 20 17
1 5 8 6 3 5 7 15 13 6 3 12 22 30 26 23 21 20 21 22 22 21 20 18 18 25 29 39 39 38 35 32 32 31 31 29 22 21 20 19 18 17 16 17 18 19 18 17 16
3 8 6 7 4 6 9 11 10 4 8 23 28 23 22 20 19 20 20 22 24 25 24 22 21 22 28 31 35 41 38 36 35 34 33 33 28 25 23 21 20 18 16 18 19 19 22 18 16
5 5 6 7 4 2 7 11 2 7 19 26 23 22 21 20 21 22 25 26 26 28 28 26 23 22 25 30 31 32 39 41 38 34 36 35 34 29 27 23 22 20 19 19 19 24 25 24 20
4 7 6 7 4 6 5 13 5 20 20 22 21 20 21 23 26 30 32 31 31 32 32 31 28 27 28 29 31 35 34 41 43 39 38 38 37 35 31 26 24 25 22 21 25 26 27 26 23
1 5 5 10 8 12 18 17 15 23 17 16 18 19 20 20 24 29 32 38 43 39 36 37 35 35 36 33 33 33 35 35 33 35 41 40 40 39 36 28 28 28 26 24 24 29 25 21 25
2 5 10 12 9 13 15 20 17 18 11 11 15 20 20 26 31 33 37 35 46 48 41 41 39 36 35 36 38 38 41 37 37 36 42 40 41 43 41 32 34 32 31 31 30 27 24 20 19
3 8 8 8 6 12 18 23 13 4 6 8 19 21 27 37 39 39 38 45 45 40 44 43 41 38 35 38 40 41 42 46 37 37 44 44 44 43 45 42 38 37 34 33 32 28 23 23 28
4 5 6 10 18 15 14 5 1 6 6 15 21 26 33 39 41 40 46 47 41 40 37 41 43 38 37 37 39 38 37 36 35 39 43 48 45 43 46 46 43 40 38 35 34 32 27 28 31
6 2 9 14 11 7 7 6 2 10 12 16 25 33 39 39 41 44 45 42 43 38 40 39 42 41 37 37 38 40 39 41 40 40 40 48 47 43 46 49 44 43 41 38 37 36 28 26 27
3 10 13 13 10 9 5 7 3 10 17 22 30 36 36 37 40 42 46 43 48 40 40 36 36 39 37 37 41 40 40 40 52 29 37 40 45 46 45 47 48 46 43 43 40 38 34 30 24
6 9 6 4 4 5 2 4 6 11 19 25 34 35 35 44 43 39 47 44 50 39 36 32 31 36 37 35 40 43 43 39 36 49 39 35 48 46 45 46 47 46 45 46 45 40 39 32 29
5 7 3 4 4 3 3 8 8 11 18 24 27 33 35 38 40 49 49 50 53 46 41 33 21 32 34 33 40 43 42 41 39 37 32 32 44 50 48 47 47 47 46 46 46 43 41 38 31
2 4 2 4 4 9 12 7 3 10 23 29 29 29 32 38 42 44 48 48 53 50 45 34 14 23 27 30 36 40 40 35 33 29 39 33 40 53 49 48 48 46 45 45 45 43 40 38 35
5 2 3 3 6 5 4 8 7 14 20 24 26 28 32 37 41 44 53 52 54 53 47 39 20 7 15 25 29 33 34 31 30 29 31 31 34 40 43 46 49 48 46 44 44 43 40 37 36
2 4 4 4 4 5 6 12 6 19 22 21 24 30 34 36 40 46 52 55 56 54 48 36 26 16 5 9 17 23 24 25 25 29 30 32 32 31 35 39 44 49 46 44 43 42 40 37 35
7 5 3 2 4 4 7 3 7 14 20 21 25 31 34 35 40 41 51 53 51 50 48 38 31 26 16 11 14 15 18 21 22 23 26 28 29 30 31 34 35 41 45 43 41 40 42 37 33
4 7 5 4 5 6 7 11 7 13 20 25 26 30 31 31 36 38 46 51 50 49 51 42 36 30 26 15 12 14 15 18 19 19 21 23 24 25 29 29 31 35 43 40 37 38 40 36 31
Wind_Direction
256 171 182 260 241 240 257 117 99 81 22 360 329 306 326 310 351 321 322 320 259 204 198 199 200 200 199 205 206 208 206 201 196 192 195 189 192 195 190 188 189 186 174 176 176 175 178 180 180
164 156 204 263 254 241 214 122 155 45 360 332 318 332 19 73 10 322 328 331 221 197 203 202 201 203 203 209 212 212 213 211 204 193 187 188 196 196 194 193 193 189 179 180 178 175 178 175 176
151 168 250 252 263 262 324 111 93 20 44 1 342 22 17 359 348 343 328 316 248 194 200 207 203 204 205 211 213 215 217 215 210 200 190 195 197 197 195 198 195 191 188 185 186 181 179 177 176
156 213 227 245 248 216 28 100 358 355 76 355 349 271 334 16 353 342 336 338 252 195 196 215 206 204 210 216 218 218 219 217 210 204 198 196 197 195 198 200 197 194 191 186 189 187 185 182 179
201 240 241 244 257 297 276 333 335 336 14 347 349 332 315 128 350 352 354 340 262 206 202 208 204 209 216 219 217 216 215 213 208 203 202 199 198 196 199 200 196 193 192 193 190 188 188 185 176
220 262 238 249 232 270 325 347 325 331 338 336 326 317 311 335 350 350 353 329 244 229 211 205 202 206 215 219 217 211 207 205 203 203 202 202 199 197 196 198 192 190 194 198 198 199 195 188 179
267 251 271 292 279 283 53 3 3 335 325 349 321 308 315 332 340 340 345 348 263 233 220 210 204 208 211 212 212 212 211 201 196 202 203 205 200 198 195 195 192 193 194 201 206 207 199 193 189
265 266 266 244 286 298 62 334 342 338 321 326 319 333 324 325 330 336 334 341 296 231 226 214 211 213 209 209 209 210 210 206 197 198 206 204 203 201 198 196 197 198 196 197 210 213 201 193 195
203 248 259 272 267 343 329 329 319 312 284 309 321 314 315 318 326 332 340 343 327 256 226 220 218 216 213 210 208 209 211 207 205 202 202 206 204 203 200 198 198 198 200 208 218 214 202 187 191
239 254 324 24 3 314 315 313 316 308 303 298 309 316 327 329 332 331 333 333 330 284 240 225 225 222 219 216 214 210 210 209 208 207 204 203 202 202 194 203 198 200 208 207 197 203 190 182 186
193 277 96 99 0 322 305 302 319 301 289 325 308 320 325 328 327 323 320 319 325 305 252 237 229 228 224 223 220 214 211 208 208 208 207 199 204 206 200 203 200 202 196 189 185 191 188 186 180
250 270 281 348 331 309 300 313 307 288 291 308 302 311 316 316 312 310 308 309 312 311 281 253 239 234 229 228 226 220 215 212 212 212 208 201 201 206 201 200 195 189 185 194 182 186 193 194 199
248 224 251 299 290 290 299 285 292 285 287 299 303 310 312 312 308 302 298 294 295 294 289 264 249 243 240 231 229 228 221 217 215 216 214 209 202 206 205 201 193 190 191 192 188 187 194 198 199
3 269 274 255 275 281 293 297 275 284 298 303 309 309 308 311 311 307 302 297 291 285 282 276 252 242 242 241 234 232 229 223 219 218 216 213 207 206 205 208 198 193 199 192 193 191 191 194 201
283 280 248 220 279 302 316 272 226 230 320 309 307 307 311 317 320 321 315 307 301 291 281 274 270 250 239 236 238 237 234 230 224 222 219 215 212 212 205 207 201 198 196 189 192 188 192 195 205
252 246 267 154 308 83 334 306 81 302 306 300 305 310 318 325 326 327 324 315 306 295 285 275 263 253 244 237 233 231 231 234 228 224 221 218 216 212 208 205 204 199 193 190 192 198 202 207 210
197 288 293 307 282 318 278 301 316 305 300 304 313 317 320 323 327 327 324 320 309 295 285 277 265 251 244 240 233 232 227 226 229 230 229 221 218 215 210 205 204 208 201 198 204 203 205 208 211
29 283 286 296 323 317 295 287 322 303 306 307 318 313 310 314 319 318 317 316 318 300 284 272 265 255 238 235 234 227 226 224 218 217 228 229 220 220 211 208 207 209 205 203 208 210 205 212 214
58 295 299 303 340 314 301 307 318 308 310 333 328 325 319 318 318 319 318 311 311 302 286 268 263 259 252 234 225 221 220 219 218 217 225 227 224 219 218 209 212 209 211 215 216 215 204 206 203
307 307 313 293 301 318 302 306 304 39 354 335 344 341 337 330 323 322 320 320 318 298 282 273 258 256 248 243 231 224 217 219 217 218 223 226 228 220 221 215 216 213 211 214 214 209 202 203 206
280 287 330 304 314 284 314 278 99 74 352 353 354 345 341 338 333 328 324 321 315 308 293 276 261 251 248 236 231 225 220 217 212 216 222 223 226 224 221 220 218 218 215 215 212 208 202 205 211
287 24 311 302 312 316 352 293 335 350 5 358 349 347 346 347 338 331 323 321 321 316 301 286 261 247 246 233 228 222 217 207 217 214 219 219 224 226 224 220 218 222 218 218 216 213 206 206 216
349 314 297 293 277 294 173 269 32 10 353 349 346 343 347 344 341 333 335 330 331 323 315 297 264 244 240 231 228 223 217 215 219 217 218 213 222 225 225 222 221 224 223 222 222 215 212 214 214
303 286 280 231 252 248 131 300 304 19 358 346 346 351 349 344 341 338 341 341 339 328 329 316 259 240 237 226 223 220 218 210 205 211 210 207 223 228 223 224 222 223 225 225 226 221 221 212 211
286 301 260 228 223 281 131 285 267 24 8 355 348 349 347 346 346 349 342 347 345 341 343 333 276 239 232 222 216 217 218 213 206 210 219 211 220 226 225 223 223 222 223 225 228 225 223 223 217
52 339 330 274 286 312 301 233 87 36 6 10 359 354 347 351 353 347 345 346 347 347 349 355 0 240 231 217 212 218 215 214 213 214 213 219 223 230 228 224 224 223 223 223 226 227 226 224 227
134 180 28 294 247 271 229 272 284 12 358 5 353 347 348 356 352 349 352 351 353 350 350 3 30 20 234 222 223 217 213 211 209 210 212 216 220 226 228 230 225 224 223 223 224 225 225 224 227
260 128 204 173 283 287 289 302 6 349 348 3 354 351 349 350 352 352 354 357 0 355 3 22 40 48 92 186 206 205 206 209 210 210 212 214 221 222 227 231 228 225 221 219 223 224 223 223 232
167 185 204 281 260 286 303 5 30 2 355 355 350 347 347 349 349 350 355 359 0 358 10 21 31 45 71 152 171 191 203 208 211 212 212 213 220 223 233 229 233 231 224 222 225 225 223 224 231
240 185 196 241 173 241 287 289 47 19 5 350 346 344 346 349 349 352 356 1 3 1 8 19 26 41 48 57 161 191 202 197 205 204 211 216 219 220 231 232 230 229 226 225 228 228 226 225 231
Height
1520 1519 1520 1520 1516 1504 1494 1503 1505 1508 1509 1512 1510 1509 1506 1504 1504 1500 1502 1496 1496 1497 1497 1498 1500 1501 1503 1506 1508 1510 1513 1515 1517 1517 1519 1521 1523 1524 1524 1525 1525 1526 1527 1529 1530 1531 1532 1534 1535
1519 1520 1521 1518 1509 1499 1487 1500 1504 1511 1514 1513 1509 1506 1505 1504 1506 1504 1502 1497 1493 1498 1499 1499 1500 1502 1505 1506 1508 1510 1513 1515 1518 1518 1519 1522 1523 1524 1525 1525 1526 1527 1528 1530 1530 1532 1534 1535 1536
1519 1520 1519 1509 1500 1498 1492 1502 1508 1512 1514 1512 1510 1508 1507 1508 1506 1504 1501 1495 1494 1497 1500 1501 1501 1503 1504 1506 1508 1511 1513 1515 1518 1519 1520 1521 1523 1524 1525 1527 1527 1528 1529 1531 1532 1533 1534 1535 1537
1522 1523 1521 1508 1497 1494 1500 1507 1510 1509 1513 1514 1513 1507 1511 1510 1508 1505 1498 1493 1494 1496 1500 1501 1503 1502 1504 1506 1508 1510 1513 1515 1517 1519 1521 1520 1523 1524 1525 1526 1527 1529 1530 1531 1532 1534 1535 1536 1537
1523 1519 1508 1504 1498 1500 1507 1511 1512 1510 1513 1513 1512 1509 1510 1509 1507 1503 1497 1494 1496 1497 1499 1499 1502 1505 1506 1507 1507 1509 1512 1515 1516 1519 1520 1521 1522 1522 1525 1526 1527 1528 1530 1531 1534 1534 1535 1537 1538
1519 1517 1507 1499 1494 1504 1510 1513 1512 1511 1512 1511 1512 1511 1507 1507 1505 1501 1497 1494 1495 1497 1497 1499 1500 1503 1506 1507 1508 1509 1510 1513 1515 1518 1520 1522 1522 1522 1523 1525 1526 1528 1530 1532 1533 1535 1535 1537 1538
1515 1510 1501 1502 1504 1504 1509 1514 1513 1514 1511 1511 1512 1508 1506 1505 1505 1502 1498 1494 1493 1496 1497 1497 1499 1501 1503 1505 1507 1509 1511 1512 1513 1517 1519 1522 1522 1522 1523 1524 1525 1527 1529 1531 1533 1534 1536 1538 1539
1518 1512 1506 1502 1501 1504 1513 1515 1516 1515 1512 1513 1512 1505 1505 1506 1504 1502 1500 1495 1494 1494 1497 1497 1498 1500 1501 1504 1506 1508 1510 1512 1512 1515 1519 1521 1522 1522 1522 1523 1524 1526 1528 1530 1532 1533 1535 1538 1539
1518 1510 1502 1503 1508 1504 1512 1515 1513 1515 1512 1510 1510 1510 1508 1505 1503 1501 1499 1498 1496 1495 1496 1497 1497 1499 1500 1501 1502 1505 1509 1511 1512 1514 1516 1520 1521 1522 1522 1522 1523 1525 1527 1529 1531 1533 1535 1539 1540
1513 1506 1501 1510 1512 1512 1514 1514 1513 1512 1507 1506 1507 1508 1507 1504 1502 1500 1499 1498 1497 1497 1496 1496 1497 1498 1499 1500 1501 1504 1506 1509 1511 1512 1513 1516 1520 1522 1523 1521 1522 1524 1526 1528 1530 1533 1535 1537 1539
1512 1504 1509 1512 1516 1517 1513 1512 1512 1509 1502 1505 1507 1505 1505 1503 1501 1499 1498 1497 1495 1495 1495 1494 1494 1495 1497 1498 1500 1501 1503 1505 1509 1511 1511 1515 1517 1520 1521 1520 1520 1522 1525 1527 1528 1532 1534 1535 1537
1512 1513 1516 1515 1517 1517 1514 1513 1510 1507 1504 1506 1506 1504 1502 1501 1500 1498 1495 1494 1493 1491 1492 1492 1492 1492 1493 1495 1497 1498 1499 1501 1503 1507 1509 1512 1514 1516 1518 1520 1519 1521 1524 1528 1528 1530 1533 1534 1536
1512 1514 1516 1517 1518 1517 1516 1512 1511 1502 1502 1504 1504 1502 1499 1498 1496 1495 1492 1490 1489 1488 1487 1489 1489 1489 1489 1490 1492 1494 1495 1498 1500 1503 1505 1508 1511 1513 1514 1517 1517 1520 1523 1525 1527 1528 1530 1533 1535
1517 1517 1514 1515 1515 1514 1514 1509 1507 1501 1502 1502 1501 1497 1495 1494 1493 1490 1488 1486 1485 1485 1484 1483 1484 1483 1485 1486 1487 1489 1492 1494 1496 1498 1500 1504 1507 1508 1510 1513 1515 1518 1519 1523 1526 1525 1529 1532 1534
1519 1515 1510 1512 1513 1511 1512 1497 1500 1500 1502 1499 1496 1494 1491 1491 1490 1487 1486 1484 1481 1480 1479 1479 1478 1479 1479 1479 1483 1483 1486 1489 1490 1492 1496 1498 1502 1504 1505 1509 1512 1515 1516 1519 1522 1524 1526 1529 1532
1515 1514 1502 1508 1511 1509 1512 1495 1498 1502 1501 1497 1494 1490 1487 1487 1485 1483 1481 1480 1479 1476 1473 1472 1472 1472 1473 1474 1476 1478 1479 1480 1484 1485 1489 1492 1496 1499 1502 1504 1508 1511 1513 1516 1519 1519 1523 1525 1528
1508 1499 1505 1503 1506 1510 1508 1500 1497 1498 1496 1491 1489 1486 1485 1484 1482 1478 1476 1474 1473 1470 1466 1464 1463 1461 1463 1466 1467 1469 1473 1473 1475 1479 1481 1485 1489 1493 1497 1499 1502 1506 1509 1513 1514 1516 1520 1523 1526
1499 1506 1508 1507 1501 1506 1500 1495 1496 1491 1489 1488 1487 1485 1484 1484 1483 1479 1476 1468 1462 1461 1458 1454 1451 1450 1449 1452 1456 1458 1462 1466 1468 1470 1473 1477 1482 1487 1491 1495 1496 1500 1504 1508 1510 1513 1518 1521 1523
1516 1514 1507 1501 1507 1508 1490 1492 1491 1486 1486 1485 1484 1482 1480 1479 1476 1473 1470 1466 1459 1447 1444 1441 1439 1438 1442 1440 1440 1443 1446 1454 1459 1460 1464 1470 1475 1480 1484 1488 1491 1494 1497 1501 1505 1510 1515 1519 1521
1515 1511 1502 1505 1506 1510 1493 1486 1482 1482 1483 1483 1481 1480 1478 1473 1468 1464 1462 1457 1448 1440 1431 1427 1427 1427 1428 1432 1433 1433 1435 1438 1447 1451 1454 1459 1464 1470 1476 1479 1483 1487 1491 1495 1500 1505 1510 1514 1514
1511 1512 1511 1514 1507 1498 1494 1466 1474 1478 1478 1481 1482 1481 1477 1472 1464 1458 1452 1447 1439 1428 1423 1418 1414 1415 1417 1420 1424 1425 1428 1432 1436 1438 1442 1446 1454 1460 1467 1472 1475 1480 1485 1488 1493 1498 1502 1506 1509
1511 1518 1518 1512 1509 1493 1500 1477 1470 1471 1474 1480 1481 1476 1473 1470 1463 1459 1449 1437 1428 1418 1410 1404 1400 1402 1406 1411 1413 1414 1413 1415 1421 1428 1433 1435 1444 1451 1456 1464 1468 1472 1478 1481 1486 1491 1496 1502 1502
1515 1519 1516 1512 1508 1504 1491 1491 1458 1465 1476 1476 1475 1473 1471 1471 1464 1451 1438 1428 1414 1404 1397 1389 1386 1389 1394 1398 1402 1407 1408 1410 1414 1414 1429 1426 1433 1441 1447 1456 1460 1464 1470 1475 1479 1484 1489 1494 1499
1520 1514 1507 1508 1503 1493 1486 1493 1468 1475 1481 1477 1474 1472 1473 1465 1459 1447 1435 1422 1408 1396 1386 1376 1374 1376 1382 1385 1392 1396 1397 1404 1408 1420 1417 1416 1424 1431 1438 1447 1452 1457 1462 1467 1471 1477 1481 1487 1491
1514 1504 1487 1486 1485 1481 1488 1494 1476 1483 1486 1486 1480 1479 1477 1469 1456 1441 1431 1417 1406 1393 1381 1370 1364 1366 1372 1375 1380 1386 1389 1395 1400 1401 1400 1410 1415 1422 1428 1437 1442 1447 1452 1458 1464 1470 1474 1478 1483
1516 1512 1502 1506 1487 1483 1485 1487 1470 1481 1487 1490 1490 1486 1478 1466 1454 1446 1434 1420 1408 1392 1377 1364 1357 1360 1364 1367 1372 1380 1384 1387 1390 1393 1395 1405 1410 1416 1419 1427 1433 1440 1445 1450 1456 1464 1469 1473 1476
1517 1512 1518 1522 1505 1501 1475 1471 1463 1480 1486 1489 1490 1485 1476 1465 1457 1445 1431 1419 1408 1394 1380 1365 1353 1354 1359 1363 1368 1374 1379 1382 1383 1389 1397 1402 1409 1410 1413 1419 1426 1431 1437 1443 1450 1457 1462 1466 1469
1515 1519 1516 1511 1508 1495 1469 1469 1467 1481 1483 1487 1486 1480 1474 1465 1458 1446 1432 1417 1406 1392 1373 1358 1353 1353 1355 1359 1367 1371 1375 1378 1384 1390 1394 1400 1405 1403 1407 1413 1419 1425 1430 1437 1443 1450 1456 1460 1463
1516 1514 1515 1515 1508 1497 1486 1469 1485 1490 1487 1487 1487 1482 1476 1466 1459 1449 1435 1421 1411 1400 1382 1370 1363 1358 1357 1359 1363 1367 1371 1376 1381 1383 1388 1393 1397 1400 1404 1409 1415 1420 1426 1432 1438 1444 1450 1453 1456
1508 1509 1512 1507 1505 1500 1497 1487 1482 1488 1493 1493 1488 1485 1478 1470 1462 1453 1441 1429 1415 1405 1390 1378 1368 1361 1360 1362 1362 1364 1367 1372 1375 1379 1383 1388 1392 1396 1400 1405 1409 1414 1422 1426 1433 1439 1443 1447 1449